sat.trackr.live / text

‹ back to catalog

STARLINK-5101

NORAD 54822 · 2022-177C

PAYLOAD ACTIVE UNKNOWN

§ Identity

Operator
Country
US
Launch date
2022-12-28
Launch site
AFETR
Launch vehicle
Mass (kg)
RCS (m²)

Purposes: comms

External: N2YO · Heavens-Above · Gunter

§ Orbital elements

Epoch: 2026-09-20T22:39:41.668992Z

Period
94.27 min
Inclination
43.0006°
Eccentricity
0.0001068
Mean motion
15.27575857 rev/d
Perigee alt
482.3 km
Apogee alt
483.8 km
Semi-major
6,861.2 km
B*
1.5301e-6
RAAN
113.4857°
Arg perigee
238.0316°
Mean anomaly
122.0432°
Rev number
20,678

§ Raw data

STARLINK-51011 54822U 22177C   26263.94423228 -.00000220  00000+0  15301-5 0  99922 54822  43.0006 113.4857 0001068 238.0316 122.0432 15.27575857206782

JSON: /api/v1/satellites/54822 · /tle

For live sub-satellite position, see the globe view (requires WebGL).

§ Visibility from observer

Set your observer location to see the next 7 days of passes ≥ 10°. The values pass through the URL so the page stays shareable.

No JS? Fill the form by hand. The geolocation button needs JavaScript.